Newport, RI

7:33 AM EDT on June 27, 2017 (GMT -0400)
Newport State

Weather History for KUUU - October, 2012

Change the Weather History Date:

Tuesday, October 9, 2012

  Actual Average Record
Temperature  
Mean Temperature 54 °F -  
Max Temperature 57 °F 65 °F 84 °F (2011)
Min Temperature 51 °F 49 °F 34 °F (2001)
Degree Days  
Heating Degree Days 11    
Growing Degree Days 4 (Base 50)    
Moisture  
Dew Point 49 °F    
Average Humidity 85    
Maximum Humidity 94    
Minimum Humidity 77    
Precipitation  
Precipitation 0.00 in - - ()
Sea Level Pressure  
Sea Level Pressure 30.19 in    
Wind  
Wind Speed 10 mph (NE)    
Max Wind Speed 15 mph    
Max Gust Speed 23 mph    
Visibility 10 miles    
Events Rain    
Averages and records for this station are not official NWS values.
T = Trace of Precipitation, MM = Missing Value Source: NWS Daily Summary

Daily Weather History Graph

Daily Weather History Graph

Search for Another Location

Airport or City:

Trip Planner

Search our weather history database for the weather conditions in past years. The results will help you decide how hot, cold, wet, or windy it might be!

Date:

Astronomy

Oct. 09, 2012 Rise Set
Actual Time 6:50 AM EDT 6:12 PM EDT
Civil Twilight 6:23 AM EDT 6:40 PM EDT
Nautical Twilight 5:51 AM EDT 7:12 PM EDT
Astronomical Twilight 5:18 AM EDT 7:44 PM EDT
Moon 12:20 AM EDT (10/9) 2:42 PM EDT (10/9)
Length of Visible Light 12h 17m
Length of Day
11h 21m
Last Quarter, 37% of the Moon is Illuminated
Oct 9
Last Quarter
Oct 15
New
Oct 21
First Quarter
Oct 29
Full
Nov 6
Last Quarter

Hourly Weather History & Observations

Time (EDT) Temp. Dew Point Humidity Pressure Visibility Wind Dir Wind Speed Gust Speed Precip Events Conditions
12:53 AM 52.0 °F 46.0 °F 80% 30.28 in 10.0 mi ENE 4.6 mph - N/A   Scattered Clouds
1:53 AM 51.1 °F 48.0 °F 89% 30.26 in 10.0 mi ENE 5.8 mph - 0.00 in Rain Light Rain
2:53 AM 51.1 °F 48.0 °F 89% 30.24 in 10.0 mi NE 9.2 mph - 0.00 in   Overcast
3:21 AM 51.8 °F 48.2 °F 88% 30.23 in 10.0 mi ENE 9.2 mph - N/A   Overcast
4:53 AM 52.0 °F 48.9 °F 89% 30.23 in 6.0 mi NE 9.2 mph - N/A   Overcast
5:02 AM 51.8 °F 48.2 °F 88% 30.23 in 6.0 mi NE 9.2 mph - 0.00 in Rain Light Rain
5:18 AM 51.8 °F 48.2 °F 88% 30.22 in 10.0 mi NE 11.5 mph - 0.00 in   Overcast
5:42 AM 51.8 °F 48.2 °F 88% 30.22 in 10.0 mi NE 9.2 mph 19.6 mph 0.00 in   Overcast
5:53 AM 52.0 °F 48.9 °F 89% 30.22 in 10.0 mi NE 10.4 mph - 0.00 in   Overcast
6:03 AM 51.8 °F 48.2 °F 88% 30.22 in 10.0 mi NE 10.4 mph 20.7 mph N/A   Overcast
6:42 AM 51.8 °F 48.2 °F 88% 30.23 in 10.0 mi NE 8.1 mph - N/A   Overcast
6:53 AM 52.0 °F 48.9 °F 89% 30.22 in 10.0 mi NE 10.4 mph - N/A   Overcast
7:48 AM 51.8 °F 48.2 °F 88% 30.22 in 10.0 mi NE 13.8 mph 20.7 mph N/A   Overcast
8:06 AM 51.8 °F 50.0 °F 94% 30.23 in 10.0 mi NE 12.7 mph - N/A   Overcast
8:53 AM 52.0 °F 50.0 °F 93% 30.22 in 10.0 mi NE 8.1 mph - N/A   Overcast
9:53 AM 53.1 °F 50.0 °F 89% 30.22 in 10.0 mi NE 12.7 mph - N/A   Overcast
10:13 AM 53.6 °F 50.0 °F 88% 30.23 in 10.0 mi ENE 13.8 mph 18.4 mph N/A   Overcast
10:53 AM 54.0 °F 50.0 °F 86% 30.22 in 10.0 mi NE 10.4 mph 23.0 mph N/A   Overcast
11:49 AM 55.4 °F 50.0 °F 82% 30.20 in 10.0 mi NE 12.7 mph - N/A   Overcast
11:53 AM 55.0 °F 50.0 °F 83% 30.20 in 10.0 mi NE 13.8 mph 18.4 mph N/A   Overcast
12:53 PM 55.9 °F 50.0 °F 80% 30.19 in 10.0 mi ENE 9.2 mph - N/A   Overcast
1:53 PM 55.9 °F 50.0 °F 80% 30.16 in 10.0 mi NE 13.8 mph 20.7 mph N/A   Overcast
2:31 PM 57.2 °F 50.0 °F 77% 30.16 in 10.0 mi NE 13.8 mph - N/A   Overcast
2:53 PM 57.0 °F 50.0 °F 77% 30.16 in 10.0 mi NE 13.8 mph - N/A   Overcast
3:34 PM 57.2 °F 50.0 °F 77% 30.15 in 10.0 mi NE 9.2 mph - N/A   Overcast
3:53 PM 55.9 °F 50.0 °F 80% 30.15 in 10.0 mi NE 11.5 mph - N/A   Overcast
4:33 PM 55.4 °F 50.0 °F 82% 30.14 in 10.0 mi ENE 11.5 mph - N/A   Overcast
4:46 PM 55.4 °F 50.0 °F 82% 30.14 in 10.0 mi NE 11.5 mph 19.6 mph N/A   Overcast
4:53 PM 55.9 °F 50.0 °F 80% 30.14 in 10.0 mi NE 10.4 mph 19.6 mph N/A   Overcast
5:53 PM 54.0 °F 50.0 °F 86% 30.14 in 10.0 mi NE 12.7 mph - N/A   Overcast
6:53 PM 54.0 °F 48.9 °F 83% 30.13 in 10.0 mi NE 15.0 mph 21.9 mph N/A   Overcast
7:38 PM 53.6 °F 48.2 °F 82% 30.14 in 10.0 mi NNE 11.5 mph - N/A   Overcast
7:53 PM 53.1 °F 48.0 °F 83% 30.14 in 10.0 mi NNE 6.9 mph 17.3 mph N/A   Overcast
8:02 PM 53.6 °F 48.2 °F 82% 30.13 in 10.0 mi NNE 11.5 mph 18.4 mph N/A   Overcast
8:30 PM 53.6 °F 46.4 °F 77% 30.13 in 10.0 mi NNE 13.8 mph - N/A   Overcast
8:53 PM 53.1 °F 46.9 °F 80% 30.14 in 10.0 mi NE 10.4 mph - N/A   Overcast
9:53 PM 53.1 °F 48.0 °F 83% 30.13 in 10.0 mi NE 11.5 mph - N/A   Overcast
10:53 PM 53.1 °F 48.0 °F 83% 30.12 in 10.0 mi NE 6.9 mph - N/A   Overcast
11:53 PM 53.1 °F 48.9 °F 86% 30.10 in 10.0 mi NE 6.9 mph - N/A   Overcast